Погода Кемь-Порт

Погода Кемь-Порт : погода сейчас, прогноз погоды и архив. Всё, что Вы хотите узнать о погоде Кемь-Порт!

Поиск расширенной информации на нашем сайте:

Другие новости

Новости СМИ2

Главная страница сайта

Новости сайта

03.07.2017

Напоминаем, что на нашем специализированном сайте Метеоцентр.Азия вы можете получить высокодетализированные автоматические прогнозы погоды по пунктам России, СНГ и мира в авиационном формате (включающие направление и скорость ветра, видимость, явления погоды, количество и форму облачности, нижнюю и верхнюю границу облачности).


Погода Кемь-Порт - сегодня

Время (UTC), дата Ветер
(°,м/с) 
Видим.   Явления Облачность Т
(°С)
Тd
(°С)
f(%) Тe
(°С)
Pmin
(гПа)
dP
(гПа)
Po
(мм)
O2
(г/м3)
Тmin Tmax R s Состояние
почвы
12 14.06.18 110 (В) 20000 м    8/8 300 м 
[Sc]
+10.7 -2 41 +10  1016.3  762  296           
15 14.06.18 130 (ЮВ) 20000 м    4/4 600 м 
[Cu Sc]
+10 -0.3 49 +8  1016.4  0.1  762  296           
18 14.06.18 130 (ЮВ) 20000 м    ясно 
+9.2 -0.6 50 +8  1016.3  0.1  762  297    +11.5       
21 14.06.18 140 (ЮВ) 20000 м    ясно 
+8.1 +0.8 60 +7  1016  -0.2  761  298           
00 15.06.18 130 (ЮВ) 20000 м    3/0 средняя, верхняя 
[Ac trans|Ci fib]
+8.4 +2.7 67 +7  1015.6  -0.5  761  297           
03 15.06.18 150 (ЮВ) 20000 м    9/0 верхняя 
[Cs]
+9.2 +3.7 68 +8  1014.8  -0.8  760  296  +7.8         
06 15.06.18 130 (ЮВ) 20000 м    9/0 средняя 
[Ac trans]
+10.4 +5.4 71 +9  1014.4  -0.4  760  294  +7.8        влажная 
09 15.06.18 130 (ЮВ) 6{10}  20000 м    8/6 600 м верхняя 
[Sc|Ci fib]
+10.9 +6.5 74 +9  1014.1  -0.2  760  293           
12 15.06.18 130 (ЮВ) 20000 м    10/0 средняя 
[Ac As]
+13.2 +7.1 66 +12  1013.1  -1  759  291           
21 15.06.18 180 (Ю) 20000 м    8/6 600 м верхняя 
[Sc|Cs]
+16.6 +8.9 60 +17  1012.2  0.3  758  287           
00 16.06.18 190 (Ю) 20000 м    8/0 средняя 
[Ac As]
+14.8 +8.8 67 +15  1012.4  0.3  759  288           
03 16.06.18 230 (ЮЗ) 20000 м    6/0 средняя 
[Ac As]
+16.3 +10.1 67 +18  1013.4  759  287  +14         
09 16.06.18 240 (ЮЗ) 20000 м    4/4 600 м 
[Cu med, cong]
+24.2 +7.5 34 +24  1014.2  0.4  760  280           
12 16.06.18 260 (З) 20000 м    3/3 1000 м 
[Cu med, cong]
+24.9 +4.2 26 +25  1014.6  0.4  760  280           
21 16.06.18 170 (Ю) 20000 м    3/3 600 м 
[Cu Sc]
+13.2 +10.4 83 +15  1015.5  0.7  761  291           
00 17.06.18 250 (З) 20000 м    8/8 600 м 
[Sc]
+11.2 +7 75 +11  1016.2  0.6  761  294           
03 17.06.18 260 (З) н/о    н/о 
+15.8 +7.4 57 +17  1017.1  0.9  762  289  +11         
09 17.06.18 130 (ЮВ) 20000 м    3/3 300 м верхняя 
[Sc|Ci fib]
+21.5 +7.2 40 +22  1017.6  0.2  763  284           
12 17.06.18 130 (ЮВ) 20000 м    6/6 600 м 
[Sc]
+21.2 +6.5 38 +21  1017.5  0.1  763  284           
15 17.06.18 140 (ЮВ) 20000 м    9/8 600 м верхняя 
[Sc|Ci fib]
+18 +6.4 47 +18  1017.2  -0.3  762  287           
21 17.06.18 150 (ЮВ) 20000 м    4/3 600 м верхняя 
[Sc|Ci fib]
+14.3 +5.9 57 +16  1016.8  -0.3  762  291           
00 18.06.18 150 (ЮВ) 20000 м    8/8 600 м 
[Sc]
+13.3 +6.4 63 +14  1016.6  -0.3  762  292           
03 18.06.18 130 (ЮВ) 20000 м    9/9 600 м 
[Sc]
+13.6 +7 64 +14  1015.9  -0.7  761  291  +13         
06 18.06.18 120 (ЮВ) 7-11{11}  20000 м    8/3 600 м верхняя 
[Sc|Ci fib]
+17.5 +7.1 50 +17  1014.5  -1.3  760  287  +13        сухая 
09 18.06.18 130 (ЮВ) 6{12}  20000 м    6/0 верхняя 
[Ci fib]
+17.7 +8.8 56 +18  1013.2  -1.4  759  286           
Время (UTC), дата Ветер
(°,м/с) 
Видим.   Явления Облачность Т
(°С)
Тd
(°С)
f(%) Тe
(°С)
Pmin
(гПа)
dP
(гПа)
Po
(мм)
O2
(г/м3)
Тmin Tmax R s Состояние
почвы

Для получения пояснительной информации подведите курсор к названию столбца.

ПОГОДА Кемь-Порт - архив

Всё, что Вы хотите узнать о погоде Кемь-Порт - удобно и подробно!

Выберите нужную дату (начиная с 1 января 2015* года) и нажмите кнопку "Найти".
Будут отображены архивные сводки погоды по пункту Кемь-Порт, начиная с указанной даты.


Отображать данные в формате CSV (для использования в таблицах Excel)


Внимание! Наш архив погоды предназначен исключительно для личного некоммерческого использования в познавательных целях. Если Вам необходимы официальные справки о состоянии погоды (для производственных, юридических, коммерческих и т.п. целей), обращайтесь в органы Росгидромета.

*Примечание: данная дата относится к архиву по метеостанциям СССР (Россия, СНГ, Балтия).
Архив по метеостанциям Зарубежной Европы и Азии (кроме Китая) хранится 10 дней, по другим регионам земного шара (Китай, Африка, Америка, Австралия, Океания) - 1 день.

Кемь-Порт - район местоположения метеостанции


Название, широта, долгота, высота метеостанции:
Кемь-Порт 64.98°ш. 34.80°д. 8 м над ур. моря [Российская Федерация]

Дополнительная информация

В oтличие oт бoльшинства пoгoдных сайтoв мы публикуем пoдрoбную метеoинфoрмацию в детальнoм прoфессиoнальнoм фoрмате.

Характеристики температуры и влажнoсти вoздуха измеряются на высoте 2 м в тени вдали oт зданий и деревьев.
Скoрoсть ветра измеряется на высoте 10 м (на урoвне рoста челoвека скoрoсть ветра ниже в 1.5-2 раза). Если метеoстанция нахoдится в гoрoде или в лесу, тo скoрoсть ветра занижена на 2-4 м/с пo сравнению с oткрытым местoм. Скoрoсть ветра над акватoриями крупных рек и oзёр, а также на вершинах хoлмoв на 2-5 м/с выше, чем в oбычных услoвиях.
Атмoсфернoе давление в разных тoчках местнoсти мoжет значительнo oтличаться oт давления на метеoстанции, в зависимoсти oт услoвий рельефа (при пoдъёме на 10 м давление пoнижается примернo на 1 мм рт.ст.).